Dyersburg, TN

12:09 AM CST on December 06, 2019 (GMT -0600)
Dyersburg Municipal

Weather History for KDYR - October, 2019

Change the Weather History Date:

Tuesday, October 15, 2019

  Actual Average Record
Temperature  
Mean Temperature 63 °F -  
Max Temperature 75 °F 69 °F 87 °F (2015)
Min Temperature 51 °F 48 °F 37 °F (2006)
Degree Days  
Heating Degree Days 2    
Growing Degree Days 13 (Base 50)    
Moisture  
Dew Point 61 °F    
Average Humidity 90    
Maximum Humidity 100    
Minimum Humidity 73    
Precipitation  
Precipitation 0.50 in - - ()
Sea Level Pressure  
Sea Level Pressure 29.95 in    
Wind  
Wind Speed 4 mph ()    
Max Wind Speed 15 mph    
Max Gust Speed 22 mph    
Visibility 9.6 miles    
Events Rain , Thunderstorm    
Averages and records for this station are not official NWS values.
T = Trace of Precipitation, MM = Missing Value Source: Averaged Metar Reports

Daily Weather History Graph

Daily Weather History Graph

Search for Another Location

Airport or City:

Astronomy

Oct. 15, 2019 Rise Set
Actual Time 7:04 AM CDT 6:22 PM CDT
Civil Twilight 6:38 AM CDT 6:47 PM CDT
Nautical Twilight 6:08 AM CDT 7:17 PM CDT
Astronomical Twilight 5:38 AM CDT 7:47 PM CDT
Moon 7:44 PM CDT (10/15) 8:33 AM CDT (10/15)
Length of Visible Light 12h 09m
Length of Day
11h 17m
Full, 97% of the Moon is Illuminated
Oct 15
Full
Oct 21
Last Quarter
Oct 27
New
Nov 4
First Quarter
Nov 12
Full

Hourly Weather History & Observations

Time (CDT) Temp. Dew Point Humidity Pressure Visibility Wind Dir Wind Speed Gust Speed Precip Events Conditions
12:56 AM 52.0 °F 51.1 °F 97% 30.09 in 10.0 mi Calm Calm - N/A   Clear
1:56 AM 51.1 °F 50.0 °F 96% 30.08 in 10.0 mi Calm Calm - N/A   Clear
2:56 AM 51.1 °F 50.0 °F 96% 30.06 in 10.0 mi Calm Calm - N/A   Clear
3:56 AM 51.1 °F 50.0 °F 96% 30.05 in 10.0 mi Calm Calm - N/A   Clear
4:56 AM 54.0 °F 52.0 °F 93% 30.05 in 10.0 mi SE 4.6 mph - N/A   Clear
5:56 AM 52.0 °F 51.1 °F 97% 30.04 in 10.0 mi Calm Calm - N/A   Clear
6:56 AM 52.0 °F 50.0 °F 93% 30.04 in 10.0 mi Calm Calm - N/A   Clear
7:56 AM 55.9 °F 54.0 °F 93% 30.04 in 10.0 mi SSE 3.5 mph - N/A   Overcast
8:56 AM 57.9 °F 55.9 °F 93% 30.05 in 10.0 mi SE 4.6 mph - N/A   Overcast
9:29 AM 60.8 °F 57.2 °F 88% 30.03 in 10.0 mi SSE 4.6 mph - N/A   Overcast
9:41 AM 60.8 °F 57.2 °F 88% 30.02 in 10.0 mi SSE 3.5 mph - N/A   Overcast
9:48 AM 62.6 °F 57.2 °F 82% 30.02 in 10.0 mi SSE 5.8 mph - N/A   Overcast
9:56 AM 64.0 °F 57.9 °F 80% 30.03 in 10.0 mi SSE 3.5 mph - N/A   Overcast
10:56 AM 69.1 °F 62.1 °F 78% 30.00 in 10.0 mi SSE 4.6 mph - N/A   Mostly Cloudy
11:05 AM 69.8 °F 62.6 °F 78% 29.98 in 10.0 mi SSE 6.9 mph - N/A   Mostly Cloudy
11:16 AM 69.8 °F 62.6 °F 78% 29.98 in 10.0 mi SSE 5.8 mph - N/A   Overcast
11:56 AM 70.0 °F 64.0 °F 81% 29.99 in 10.0 mi SSE 8.1 mph - N/A   Overcast
12:03 PM 69.8 °F 64.4 °F 83% 29.98 in 10.0 mi South 8.1 mph - N/A   Overcast
12:11 PM 69.8 °F 64.4 °F 83% 29.97 in 10.0 mi South 8.1 mph - N/A   Overcast
12:56 PM 70.0 °F 64.9 °F 84% 29.98 in 10.0 mi SSE 6.9 mph - N/A   Overcast
1:45 PM 71.6 °F 64.4 °F 78% 29.94 in 10.0 mi South 5.8 mph - N/A   Overcast
1:56 PM 72.0 °F 64.9 °F 78% 29.95 in 10.0 mi South 4.6 mph - N/A   Overcast
2:56 PM 72.0 °F 66.0 °F 81% 29.93 in 10.0 mi Variable 4.6 mph - N/A   Overcast
3:56 PM 75.0 °F 66.9 °F 76% 29.90 in 10.0 mi SSE 8.1 mph - N/A   Overcast
4:19 PM 73.4 °F 66.2 °F 78% 29.88 in 10.0 mi South 4.6 mph - N/A   Mostly Cloudy
4:31 PM 75.2 °F 66.2 °F 73% 29.87 in 10.0 mi Variable 4.6 mph - N/A   Mostly Cloudy
4:56 PM 73.0 °F 66.9 °F 81% 29.88 in 10.0 mi South 8.1 mph - N/A   Overcast
5:56 PM 72.0 °F 66.0 °F 81% 29.89 in 10.0 mi SSE 4.6 mph - N/A   Overcast
6:56 PM 70.0 °F 66.9 °F 90% 29.89 in 10.0 mi Variable 3.5 mph - 0.00 in Rain Light Rain
7:56 PM 69.1 °F 66.0 °F 90% 29.88 in 10.0 mi SSW 3.5 mph - 0.00 in   Overcast
8:56 PM 66.9 °F 66.0 °F 97% 29.87 in 8.0 mi Variable 3.5 mph - 0.02 in Rain Light Rain
9:00 PM 66.2 °F 66.2 °F 100% 29.86 in 8.0 mi South 5.8 mph - 0.00 in Rain Light Rain
9:37 PM 66.2 °F 66.2 °F 100% 29.86 in 10.0 mi Variable 4.6 mph - 0.01 in   Overcast
9:56 PM 66.9 °F 66.0 °F 97% 29.87 in 9.0 mi SSW 6.9 mph - 0.01 in Rain Light Rain
10:06 PM 66.2 °F 66.2 °F 100% 29.86 in 10.0 mi SW 5.8 mph - 0.00 in Rain Light Rain
10:20 PM 66.2 °F 66.2 °F 100% 29.87 in 10.0 mi SW 5.8 mph - 0.00 in   Overcast
10:56 PM 64.9 °F 64.0 °F 97% 29.91 in 4.0 mi West 15.0 mph 21.9 mph 0.14 in Rain Heavy Rain
11:04 PM 64.4 °F 62.6 °F 94% 29.88 in 4.0 mi WNW 8.1 mph - 0.18 in Rain , Thunderstorm Heavy Rain
11:27 PM 62.6 °F 62.6 °F 100% 29.90 in 10.0 mi WSW 8.1 mph - 0.27 in Rain , Thunderstorm Rain
11:31 PM 62.6 °F 62.6 °F 100% 29.89 in 10.0 mi West 5.8 mph - 0.28 in Rain Rain
11:40 PM 62.6 °F 62.6 °F 100% 29.88 in 10.0 mi WNW 4.6 mph - 0.30 in Rain Rain
11:46 PM 62.6 °F 62.6 °F 100% 29.88 in 10.0 mi West 8.1 mph - 0.31 in Rain , Thunderstorm Thunderstorms and Rain
11:53 PM 62.6 °F 62.6 °F 100% 29.88 in 10.0 mi WSW 6.9 mph - 0.32 in Rain , Thunderstorm Thunderstorms and Rain
11:56 PM 63.0 °F 62.1 °F 97% 29.89 in 10.0 mi SW 6.9 mph - 0.33 in Rain Rain